This is the latest recevied weather packets stored in our database for station/object K4HOG. If no packets are shown the sender has not sent any weather packets the latest 10 day(s).
| Time | Temp. | Humidity | Pressure | Rain* | Wind** | Luminosity | Snow |
|---|---|---|---|---|---|---|---|
| 1778016965 | 31.11° C | 39% | 1013.8 hPa | 0 mm | - | 344 W/m² | - |
| 1778016662 | 31.67° C | 37% | 1014 hPa | 0 mm | - | 376 W/m² | - |
| 1778016358 | 31.67° C | 34% | 1014.1 hPa | 0 mm | - | 399 W/m² | - |
| 1778016056 | 31.11° C | 36% | 1014 hPa | 0 mm | - | 420 W/m² | - |
| 1778015752 | 31.11° C | 36% | 1014 hPa | 0 mm | - | 430 W/m² | - |
| 1778015449 | 31.67° C | 36% | 1013.7 hPa | 0 mm | - | 450 W/m² | - |
| 1778015146 | 31.11° C | 35% | 1013.8 hPa | 0 mm | - | 463 W/m² | - |
| 1778014843 | 31.11° C | 36% | 1013.8 hPa | 0 mm | - | 477 W/m² | - |
| 1778014536 | 31.11° C | 35% | 1013.7 hPa | 0 mm | - | 451 W/m² | - |
| 1778014232 | 32.22° C | 33% | 1013.7 hPa | 0 mm | - | 502 W/m² | - |
| 1778013930 | 32.22° C | 34% | 1013.7 hPa | 0 mm | - | 535 W/m² | - |
| 1778013627 | 32.22° C | 34% | 1013.9 hPa | 0 mm | - | 545 W/m² | - |
| 1778013324 | 31.67° C | 37% | 1014.2 hPa | 0 mm | - | 568 W/m² | - |
| 1778013021 | 31.67° C | 37% | 1014.1 hPa | 0 mm | - | 593 W/m² | - |
| 1778012717 | 31.67° C | 37% | 1014.1 hPa | 0 mm | - | 571 W/m² | - |
| 1778012413 | 31.11° C | 36% | 1014.3 hPa | 0 mm | - | 565 W/m² | - |
| 1778012109 | 31.11° C | 36% | 1014.2 hPa | 0 mm | - | 605 W/m² | - |
| 1778011807 | 31.11° C | 36% | 1014.1 hPa | 0 mm | - | 627 W/m² | - |
| 1778011505 | 31.11° C | 38% | 1014.3 hPa | 0 mm | - | 595 W/m² | - |
| 1778011201 | 31.11° C | 38% | 1014.4 hPa | 0 mm | - | 538 W/m² | - |
| 1778010898 | 31.11° C | 37% | 1014.5 hPa | 0 mm | - | 528 W/m² | - |
| 1778010595 | 31.11° C | 36% | 1014.5 hPa | 0 mm | - | 597 W/m² | - |
| 1778010292 | 31.11° C | 35% | 1014.4 hPa | 0 mm | - | 588 W/m² | - |
| 1778009992 | 31.11° C | 39% | 1014.4 hPa | 0 mm | - | 682 W/m² | - |
| 1778009690 | 31.11° C | 37% | 1014.7 hPa | 0 mm | - | 644 W/m² | - |
* Rain latest hour (hover to see other rain measurements)
** Current wind speed in m/s (hover to see current wind gust speed)